• In Czech Republic
  • List of Countries
  • For 7 days
  • Water Temperature
  • Satellite Maps
  • Weather Map
  • Weather Widgets
  • user-avatar
    Login

    Hourly Weather Garissa

    Today, 21 October, Saturday

    Time Temperature Precipitation Wind Pressure Humidity
    00:00 +29°C° 0 mm 7 mps 747 mmHg 61%
    01:00 +29°C° 0 mm 7 mps 747 mmHg 63%
    02:00 +29°C° 0 mm 7 mps 747 mmHg 65%
    03:00 +28°C° 0 mm 6 mps 746 mmHg 68%
    04:00 +28°C° 0 mm 6 mps 747 mmHg 70%
    05:00 +28°C° 0 mm 6 mps 747 mmHg 72%
    06:00 +27°C° 0 mm 5 mps 747 mmHg 74%
    07:00 +29°C° 0 mm 6 mps 747 mmHg 68%
    08:00 +30°C° 0 mm 6 mps 748 mmHg 62%
    09:00 +33°C° 0 mm 6 mps 748 mmHg 52%
    10:00 +34°C° 0 mm 6 mps 747 mmHg 48%
    11:00 +35°C° 0 mm 6 mps 747 mmHg 44%
    12:00 +36°C° 0 mm 7 mps 746 mmHg 40%
    13:00 +38°C° 0 mm 7 mps 746 mmHg 39%
    14:00 +38°C° 0 mm 7 mps 745 mmHg 38%
    15:00 +38°C° 0 mm 8 mps 744 mmHg 38%
    16:00 +38°C° 0 mm 8 mps 744 mmHg 40%
    17:00 +37°C° 0 mm 8 mps 744 mmHg 42%
    18:00 +35°C° 0 mm 8 mps 744 mmHg 44%
    19:00 +34°C° 0 mm 8 mps 745 mmHg 46%
    20:00 +33°C° 0 mm 8 mps 746 mmHg 47%
    21:00 +33°C° 0 mm 8 mps 747 mmHg 49%
    22:00 +32°C° 0 mm 8 mps 747 mmHg 53%
    23:00 +30°C° 0 mm 7 mps 747 mmHg 58%

    Tomorrow, 22 October, Sunday

    Time Temperature Precipitation Wind Pressure Humidity
    00:00 +29°C° 0 mm 7 mps 747 mmHg 63%
    01:00 +28°C° 0 mm 7 mps 747 mmHg 66%
    02:00 +28°C° 0 mm 7 mps 747 mmHg 69%
    03:00 +27°C° 0 mm 6 mps 747 mmHg 72%
    04:00 +27°C° 0 mm 6 mps 747 mmHg 72%
    05:00 +27°C° 0 mm 6 mps 747 mmHg 73%
    06:00 +27°C° 0 mm 6 mps 747 mmHg 73%
    07:00 +28°C° 0 mm 6 mps 748 mmHg 66%
    08:00 +29°C° 0 mm 7 mps 748 mmHg 60%
    09:00 +30°C° 0 mm 7 mps 748 mmHg 54%
    10:00 +33°C° 0 mm 7 mps 748 mmHg 46%
    11:00 +35°C° 0 mm 8 mps 747 mmHg 39%
    12:00 +38°C° 0 mm 8 mps 747 mmHg 31%
    13:00 +39°C° 0 mm 8 mps 745 mmHg 29%
    14:00 +39°C° 0 mm 8 mps 744 mmHg 26%
    15:00 +40°C° 0 mm 8 mps 743 mmHg 23%
    16:00 +40°C° 0 mm 8 mps 743 mmHg 25%
    17:00 +39°C° 0 mm 7 mps 743 mmHg 26%
    18:00 +38°C° 0 mm 7 mps 743 mmHg 27%
    19:00 +37°C° 0 mm 8 mps 744 mmHg 35%
    20:00 +34°C° 0 mm 9 mps 745 mmHg 43%
    21:00 +33°C° 0 mm 9 mps 746 mmHg 51%
    22:00 +32°C° 0 mm 9 mps 746 mmHg 56%
    23:00 +31°C° 0 mm 9 mps 746 mmHg 60%

    Day after tomorrow, 23 October, Monday

    Time Temperature Precipitation Wind Pressure Humidity
    00:00 +29°C° 0 mm 8 mps 746 mmHg 65%
    01:00 +29°C° 0 mm 8 mps 746 mmHg 66%
    02:00 +29°C° 0 mm 7 mps 745 mmHg 68%
    03:00 +28°C° 0 mm 6 mps 745 mmHg 69%
    04:00 +28°C° 0 mm 6 mps 745 mmHg 69%
    05:00 +28°C° 0 mm 6 mps 745 mmHg 70%
    06:00 +28°C° 0 mm 5 mps 745 mmHg 70%
    07:00 +29°C° 0 mm 6 mps 746 mmHg 64%
    08:00 +32°C° 0 mm 7 mps 746 mmHg 58%
    09:00 +33°C° 0 mm 7 mps 747 mmHg 51%
    10:00 +35°C° 0 mm 7 mps 746 mmHg 46%
    11:00 +38°C° 0 mm 7 mps 745 mmHg 41%
    12:00 +39°C° 0 mm 7 mps 745 mmHg 35%
    13:00 +40°C° 0 mm 7 mps 744 mmHg 35%
    14:00 +40°C° 0 mm 8 mps 743 mmHg 34%
    15:00 +40°C° 0 mm 8 mps 741 mmHg 34%
    16:00 +39°C° 0 mm 8 mps 742 mmHg 37%
    17:00 +38°C° 0 mm 8 mps 742 mmHg 40%
    18:00 +37°C° 0 mm 8 mps 742 mmHg 43%
    19:00 +35°C° 0 mm 8 mps 743 mmHg 46%
    20:00 +34°C° 0 mm 8 mps 744 mmHg 50%
    21:00 +33°C° 0 mm 8 mps 745 mmHg 54%
    22:00 +33°C° 0 mm 8 mps 745 mmHg 56%
    23:00 +32°C° 0 mm 8 mps 745 mmHg 59%

    24 October, Tuesday

    Time Temperature Precipitation Wind Pressure Humidity
    00:00 +31°C° 0 mm 8 mps 745 mmHg 62%
    01:00 +31°C° 0 mm 8 mps 744 mmHg 63%
    02:00 +29°C° 0 mm 8 mps 744 mmHg 65%
    03:00 +29°C° 0 mm 7 mps 743 mmHg 67%
    04:00 +29°C° 0 mm 7 mps 744 mmHg 67%
    05:00 +29°C° 0 mm 6 mps 744 mmHg 68%
    06:00 +29°C° 0 mm 6 mps 744 mmHg 69%
    07:00 +30°C° 0 mm 6 mps 745 mmHg 65%
    08:00 +32°C° 0 mm 7 mps 745 mmHg 60%
    09:00 +33°C° 0 mm 7 mps 746 mmHg 55%
    10:00 +35°C° 0 mm 7 mps 745 mmHg 49%
    11:00 +37°C° 0 mm 8 mps 745 mmHg 43%
    12:00 +39°C° 0 mm 8 mps 744 mmHg 37%
    13:00 +39°C° 0 mm 8 mps 743 mmHg 35%
    14:00 +40°C° 0 mm 8 mps 742 mmHg 33%
    15:00 +40°C° 0 mm 8 mps 741 mmHg 32%
    16:00 +39°C° 0 mm 8 mps 741 mmHg 34%
    17:00 +38°C° 0 mm 8 mps 742 mmHg 37%
    18:00 +37°C° 0 mm 8 mps 742 mmHg 40%
    19:00 +37°C° 0 mm 8 mps 743 mmHg 42%
    20:00 +35°C° 0 mm 7 mps 744 mmHg 44%
    21:00 +35°C° 0 mm 7 mps 744 mmHg 47%
    22:00 +34°C° 0 mm 7 mps 744 mmHg 51%
    23:00 +33°C° 0 mm 8 mps 745 mmHg 55%

    25 October, Wednesday

    Time Temperature Precipitation Wind Pressure Humidity
    00:00 +32°C° 0 mm 8 mps 745 mmHg 60%
    01:00 +31°C° 0 mm 8 mps 744 mmHg 62%
    02:00 +31°C° 0 mm 8 mps 744 mmHg 64%
    03:00 +29°C° 0 mm 8 mps 743 mmHg 66%
    04:00 +29°C° 0 mm 7 mps 744 mmHg 67%
    05:00 +29°C° 0 mm 7 mps 744 mmHg 68%
    06:00 +29°C° 0 mm 7 mps 745 mmHg 70%
    07:00 +30°C° 0 mm 7 mps 745 mmHg 65%
    08:00 +32°C° 0 mm 8 mps 746 mmHg 60%
    09:00 +33°C° 0 mm 8 mps 747 mmHg 55%
    10:00 +34°C° 0 mm 8 mps 746 mmHg 51%
    11:00 +35°C° 0 mm 8 mps 745 mmHg 48%
    12:00 +38°C° 0 mm 8 mps 744 mmHg 44%
    13:00 +38°C° 0.2 mm 8 mps 743 mmHg 44%
    14:00 +38°C° 0.2 mm 8 mps 743 mmHg 44%
    15:00 +38°C° 0.2 mm 7 mps 742 mmHg 44%
    16:00 +36°C° 0 mm 7 mps 742 mmHg 47%
    17:00 +35°C° 0 mm 7 mps 743 mmHg 50%
    18:00 +34°C° 0 mm 7 mps 743 mmHg 53%
    19:00 +34°C° 0 mm 7 mps 744 mmHg 56%
    20:00 +33°C° 0 mm 7 mps 745 mmHg 59%
    21:00 +32°C° 0 mm 6 mps 746 mmHg 63%
    22:00 +32°C° 1.3 mm 6 mps 745 mmHg 66%
    23:00 +30°C° 1.3 mm 6 mps 745 mmHg 69%

    26 October, Thursday

    Time Temperature Precipitation Wind Pressure Humidity
    00:00 +29°C° 1.3 mm 6 mps 745 mmHg 73%
    01:00 +29°C° 1.8 mm 5 mps 745 mmHg 74%
    02:00 +29°C° 1.8 mm 5 mps 745 mmHg 75%
    03:00 +28°C° 1.8 mm 4 mps 744 mmHg 76%
    04:00 +28°C° 1.1 mm 4 mps 745 mmHg 75%
    05:00 +28°C° 1.1 mm 3 mps 745 mmHg 75%
    06:00 +28°C° 1.1 mm 3 mps 746 mmHg 75%
    07:00 +29°C° 0.2 mm 3 mps 746 mmHg 72%
    08:00 +30°C° 0.2 mm 3 mps 746 mmHg 68%
    09:00 +30°C° 0.2 mm 3 mps 747 mmHg 65%
    10:00 +31°C° 0.8 mm 3 mps 746 mmHg 62%
    11:00 +32°C° 0.8 mm 2 mps 745 mmHg 58%
    12:00 +34°C° 0.8 mm 2 mps 744 mmHg 55%
    13:00 +34°C° 1.4 mm 2 mps 744 mmHg 54%
    14:00 +34°C° 1.4 mm 2 mps 743 mmHg 52%
    15:00 +35°C° 1.4 mm 2 mps 742 mmHg 51%
    16:00 +35°C° 0.6 mm 2 mps 743 mmHg 51%
    17:00 +35°C° 0.6 mm 2 mps 743 mmHg 52%
    18:00 +34°C° 0.6 mm 3 mps 743 mmHg 53%
    19:00 +33°C° 1.5 mm 4 mps 744 mmHg 58%
    20:00 +32°C° 1.5 mm 5 mps 744 mmHg 63%
    21:00 +30°C° 1.5 mm 6 mps 745 mmHg 68%
    22:00 +30°C° 0.8 mm 5 mps 745 mmHg 69%
    23:00 +30°C° 0.8 mm 5 mps 744 mmHg 71%
    Show more